Weather History for Puerto Plata, Dominican Republic

Change the Weather History Date:

Friday, May 3, 2013

  Actual Average Record
Temperature  
Mean Temperature 81 °F -  
Max Temperature 87 °F 84 °F 95 °F (2014)
Min Temperature 75 °F 73 °F 71 °F (2012)
Cooling Degree Days 16    
Growing Degree Days 31 (Base 50)    
Moisture  
Dew Point 75 °F    
Average Humidity 79    
Maximum Humidity 89    
Minimum Humidity 64    
Precipitation  
Precipitation 0.00 in - - ()
Sea Level Pressure  
Sea Level Pressure 29.84 in    
Wind  
Wind Speed 2 mph ()    
Max Wind Speed 9 mph    
Max Gust Speed -    
Visibility 6.7 miles    
Events Rain    
Averages and records for this station are not official NWS values.
T = Trace of Precipitation, MM = Missing Value Source: Averaged Metar Reports

Daily Weather History Graph

Daily Weather History Graph

Search for Another Location

Airport:

Trip Planner

Search our weather history database for the weather conditions in past years. The results will help you decide how hot, cold, wet, or windy it might be!

Date:

Astronomy

May. 03, 2013 Rise Set
Actual Time 6:12 AM AST 7:06 PM AST
Civil Twilight 5:48 AM AST 7:29 PM AST
Nautical Twilight 5:21 AM AST 7:56 PM AST
Astronomical Twilight 4:54 AM AST 8:24 PM AST
Moon 1:44 AM AST (5/3) 1:44 PM AST (5/3)
Length of Visible Light 13h 40m
Length of Day
12h 54m
Last Quarter, 37% of the Moon is Illuminated
May 3
Last Quarter
May 9
New
May 18
First Quarter
May 25
Full
May 31
Last Quarter

Hourly Weather History & Observations

Time (AST) Temp. Heat Index Dew Point Humidity Pressure Visibility Wind Dir Wind Speed Gust Speed Precip Events Conditions
2:00 AM 75 °F - 72 °F 89% 29.86 in 9 mi Calm Calm - -   Haze
2:00 AM 75.2 °F - 71.6 °F 89% 29.86 in 6.2 mi Calm Calm - N/A   Partly Cloudy
5:00 AM - - - N/A% 29.80 in 6.2 mi Calm Calm - N/A   Partly Cloudy
8:00 AM 75 °F - 72 °F 86% 29.86 in 8 mi Calm Calm - -  
8:00 AM 75.2 °F - 71.6 °F 89% 29.86 in 6.2 mi Calm Calm - N/A   Mostly Cloudy
9:00 AM 80.6 °F 84.6 °F 71.6 °F 74% 29.86 in 6.2 mi Calm Calm - N/A   Scattered Clouds
10:00 AM 82.4 °F 90.9 °F 77.0 °F 84% 29.86 in 6.2 mi North 5.8 mph - N/A   Mostly Cloudy
11:00 AM 84 °F - 76 °F 70% 29.87 in 10 mi NNE 4.5 mph - -   Haze
11:00 AM 84.2 °F 92.3 °F 75.2 °F 74% 29.86 in 6.2 mi NNE 5.8 mph - N/A   Mostly Cloudy
12:00 PM 86.0 °F 96.9 °F 77.0 °F 74% 29.86 in 6.2 mi ENE 8.1 mph - N/A   Mostly Cloudy
1:00 PM 84.2 °F 92.3 °F 75.2 °F 74% 29.86 in 6.2 mi NE 5.8 mph - N/A   Mostly Cloudy
2:00 PM 86 °F - 76 °F 67% 29.85 in 8 mi ENE 201.4 mph - -   Haze
2:00 PM 86.0 °F 96.9 °F 77.0 °F 74% 29.83 in 6.2 mi ENE 9.2 mph - N/A   Scattered Clouds
3:00 PM 86.0 °F 95.1 °F 75.2 °F 70% 29.80 in 6.2 mi NE 6.9 mph - N/A   Scattered Clouds
4:00 PM 86.0 °F 96.9 °F 77.0 °F 74% 29.80 in 6.2 mi North 5.8 mph - N/A   Partly Cloudy
5:00 PM 85 °F - 74 °F 64% 29.80 in 8 mi Calm Calm - -   Haze
5:00 PM 84.2 °F 92.3 °F 75.2 °F 74% 29.80 in 6.2 mi Calm Calm - N/A   Mostly Cloudy
6:00 PM 84.2 °F 94.1 °F 77.0 °F 79% 29.80 in 6.2 mi ENE 5.8 mph - N/A   Scattered Clouds
7:00 PM 82.4 °F 92.4 °F 78.8 °F 89% 29.83 in 5.0 mi NNE 4.6 mph - N/A Rain Light Rain
8:00 PM 78.8 °F - 75.2 °F 89% 29.83 in 6.2 mi Calm Calm - N/A   Mostly Cloudy
11:00 PM 77.0 °F - 73.4 °F 89% 29.86 in 6.2 mi Calm Calm - N/A   Mostly Cloudy